Weather History for Gage, OK

Change the Weather History Date:

Tuesday, October 22, 2013

  Actual Average Record
Temperature  
Mean Temperature 54 °F -  
Max Temperature 75 °F 71 °F 90 °F (1961)
Min Temperature 36 °F 44 °F 23 °F (1982)
Degree Days  
Heating Degree Days 10    
Growing Degree Days 4 (Base 50)    
Moisture  
Dew Point 35 °F    
Average Humidity 56    
Maximum Humidity 86    
Minimum Humidity 23    
Precipitation  
Precipitation 0.00 in - - ()
Sea Level Pressure  
Sea Level Pressure 30.10 in    
Wind  
Wind Speed 8 mph (West)    
Max Wind Speed 17 mph    
Max Gust Speed 24 mph    
Visibility 9 miles    
Events      
Averages and records for this station are not official NWS values.
T = Trace of Precipitation, MM = Missing Value Source: NWS Daily Summary

Daily Weather History Graph

Daily Weather History Graph

Search for Another Location

Airport:

Trip Planner

Search our weather history database for the weather conditions in past years. The results will help you decide how hot, cold, wet, or windy it might be!

Date:

Astronomy

Oct. 22, 2013 Rise Set
Actual Time 7:52 AM CDT 6:53 PM CDT
Civil Twilight 7:26 AM CDT 7:19 PM CDT
Nautical Twilight 6:56 AM CDT 7:49 PM CDT
Astronomical Twilight 6:26 AM CDT 8:19 PM CDT
Moon 9:40 PM CDT (10/22) 11:17 AM CDT (10/22)
Length of Visible Light 11h 53m
Length of Day
11h 00m
Waning Gibbous, 86% of the Moon is Illuminated
Oct 22
Waning Gibbous
Oct 26
Last Quarter
Nov 3
New
Nov 9
First Quarter
Nov 17
Full

Hourly Weather History & Observations

Time (CDT) Temp. Windchill Dew Point Humidity Pressure Visibility Wind Dir Wind Speed Gust Speed Precip Events Conditions
12:53 AM 37.9 °F 31.5 °F 33.1 °F 83% 30.12 in 10.0 mi West 9.2 mph - N/A   Clear
1:53 AM 37.9 °F 32.1 °F 34.0 °F 86% 30.12 in 10.0 mi West 8.1 mph - N/A   Clear
2:53 AM 37.0 °F 31.0 °F 33.1 °F 86% 30.11 in 10.0 mi WSW 8.1 mph - N/A   Clear
3:53 AM 36.0 °F 29.6 °F 32.0 °F 86% 30.10 in 10.0 mi WSW 8.1 mph - N/A   Clear
4:53 AM 39.0 °F 34.0 °F 34.0 °F 82% 30.08 in 10.0 mi SW 6.9 mph - N/A   Clear
5:53 AM 37.0 °F 32.4 °F 33.1 °F 86% 30.09 in 10.0 mi SW 5.8 mph - N/A   Clear
6:53 AM 39.9 °F 33.4 °F 34.0 °F 79% 30.11 in 10.0 mi WSW 10.4 mph - N/A   Clear
7:53 AM 43.0 °F 37.2 °F 34.0 °F 71% 30.12 in 7.0 mi WSW 10.4 mph - N/A   Clear
8:53 AM 46.9 °F - 35.1 °F 63% 30.13 in 5.0 mi West 12.7 mph - N/A   Haze
9:53 AM 55.9 °F - 37.0 °F 49% 30.14 in 6.0 mi West 17.3 mph 24.2 mph N/A   Haze
10:53 AM 62.1 °F - 37.0 °F 39% 30.13 in 5.0 mi West 12.7 mph - N/A   Haze
11:53 AM 68.0 °F - 35.1 °F 30% 30.12 in 10.0 mi NW 9.2 mph - N/A   Clear
12:53 PM 72.0 °F - 34.0 °F 25% 30.10 in 10.0 mi NNW 5.8 mph - N/A   Clear
1:53 PM 72.0 °F - 35.1 °F 26% 30.08 in 10.0 mi Variable 6.9 mph - N/A   Clear
2:53 PM 73.9 °F - 34.0 °F 23% 30.06 in 10.0 mi NNW 9.2 mph 18.4 mph N/A   Scattered Clouds
3:53 PM 73.9 °F - 35.1 °F 24% 30.06 in 9.0 mi NNW 8.1 mph 24.2 mph N/A   Clear
4:53 PM 73.9 °F - 35.1 °F 24% 30.06 in 10.0 mi NNW 15.0 mph 18.4 mph N/A   Clear
5:53 PM 72.0 °F - 34.0 °F 25% 30.06 in 10.0 mi North 9.2 mph - N/A   Clear
6:53 PM 64.9 °F - 37.0 °F 36% 30.06 in 10.0 mi NNW 4.6 mph - N/A   Clear
7:53 PM 54.0 °F - 37.9 °F 55% 30.08 in 10.0 mi WSW 4.6 mph - N/A   Clear
8:53 PM 50.0 °F - 37.0 °F 61% 30.09 in 10.0 mi Calm Calm - N/A   Clear
9:53 PM 46.9 °F - 37.9 °F 71% 30.09 in 10.0 mi SW 4.6 mph - N/A   Clear
10:53 PM 46.0 °F - 37.0 °F 71% 30.09 in 10.0 mi Calm Calm - N/A   Clear
11:53 PM 46.0 °F 43.9 °F 37.0 °F 71% 30.10 in 10.0 mi WSW 4.6 mph - N/A   Clear